sat.trackr.live / text

‹ back to catalog

STARLINK-34440

NORAD 64614 · 2025-137W

PAYLOAD ACTIVE UNKNOWN

§ Identity

Operator
Country
US
Launch date
2025-06-25
Launch site
AFETR
Launch vehicle
Mass (kg)
RCS (m²)

Purposes: comms

External: N2YO · Heavens-Above · Gunter

§ Orbital elements

Epoch: 2026-09-20T09:41:24.261792Z

Period
93.85 min
Inclination
53.1578°
Eccentricity
0.0000696
Mean motion
15.34402928 rev/d
Perigee alt
462.2 km
Apogee alt
463.2 km
Semi-major
6,840.8 km
B*
5.4705e-4
RAAN
148.1726°
Arg perigee
82.2005°
Mean anomaly
277.9077°
Rev number
7,058

§ Raw data

STARLINK-344401 64614U 25137W   26263.40375303  .00018153  00000+0  54705-3 0  99942 64614  53.1578 148.1726 0000696  82.2005 277.9077 15.34402928 70586

JSON: /api/v1/satellites/64614 · /tle

For live sub-satellite position, see the globe view (requires WebGL).

§ Visibility from observer

Set your observer location to see the next 7 days of passes ≥ 10°. The values pass through the URL so the page stays shareable.

No JS? Fill the form by hand. The geolocation button needs JavaScript.